| time (UTC) | temp F | wind direction | speed MPH | gust MPH | rain 1hr in | rain 24hr in | rain mn in | humidity % | barometer mb |
| 20260505061603 | 46 | 233 | 6.0 | 18.0 | 0.00 | 0.03 | 0.00 | 82 | 1007.3 |
| 20260505060056 | 46 | 264 | 5.0 | 14.0 | 0.00 | 0.03 | 0.00 | 82 | 1007.2 |
| 20260505054556 | 46 | 251 | 6.0 | 12.0 | 0.00 | 0.04 | 0.00 | 81 | 1006.8 |
| 20260505053049 | 47 | 256 | 5.0 | 12.0 | 0.00 | 0.04 | 0.00 | 81 | 1006.6 |
| 20260505051547 | 47 | 263 | 1.0 | 8.0 | 0.00 | 0.04 | 0.00 | 81 | 1006.3 |
| 20260505050119 | 47 | 243 | 2.0 | 9.0 | 0.00 | 0.04 | 0.00 | 80 | 1006.3 |
| 20260505041549 | 47 | 244 | 1.0 | 8.0 | 0.00 | 0.06 | 0.00 | 78 | 1005.8 |
| 20260505040039 | 47 | 256 | 1.0 | 5.0 | 0.00 | 0.06 | 0.00 | 78 | 1005.7 |
| 20260505034530 | 48 | 254 | 1.0 | 7.0 | 0.00 | 0.06 | 0.00 | 77 | 1005.3 |
| 20260505033027 | 49 | 282 | 3.0 | 12.0 | 0.00 | 0.06 | 0.00 | 76 | 1005.0 |
| 20260505031524 | 49 | 275 | 6.0 | 14.0 | 0.00 | 0.06 | 0.00 | 75 | 1004.7 |
| 20260505030021 | 50 | 261 | 8.0 | 18.0 | 0.00 | 0.06 | 0.00 | 74 | 1004.5 |
| 20260505024522 | 50 | 266 | 6.0 | 13.0 | 0.00 | 0.06 | 0.06 | 73 | 1004.4 |
| 20260505023018 | 50 | 259 | 8.0 | 15.0 | 0.00 | 0.06 | 0.06 | 72 | 1004.1 |
| 20260505021518 | 50 | 250 | 6.0 | 23.0 | 0.00 | 0.06 | 0.06 | 71 | 1003.9 |
| 20260505020018 | 50 | 248 | 4.0 | 19.0 | 0.00 | 0.06 | 0.06 | 71 | 1003.8 |
| 20260505014513 | 50 | 254 | 7.0 | 17.0 | 0.00 | 0.07 | 0.06 | 71 | 1003.8 |
| 20260505013016 | 50 | 233 | 4.0 | 17.0 | 0.00 | 0.07 | 0.06 | 71 | 1003.8 |
| 20260505011517 | 50 | 245 | 7.0 | 21.0 | 0.00 | 0.07 | 0.06 | 70 | 1003.6 |
| 20260505010011 | 50 | 243 | 9.0 | 20.0 | 0.00 | 0.07 | 0.06 | 67 | 1003.6 |
| 20260505004510 | 51 | 265 | 7.0 | 16.0 | 0.00 | 0.13 | 0.06 | 64 | 1003.7 |
| 20260505003008 | 51 | 277 | 7.0 | 16.0 | 0.00 | 0.13 | 0.06 | 63 | 1003.4 |
| 20260505001509 | 52 | 262 | 9.0 | 22.0 | 0.00 | 0.13 | 0.06 | 59 | 1003.2 |
| 20260505000010 | 51 | 254 | 6.0 | 15.0 | 0.00 | 0.13 | 0.06 | 59 | 1003.2 |
| 20260504234504 | 50 | 246 | 3.0 | 11.0 | 0.00 | 0.34 | 0.06 | 61 | 1002.6 |
| 20260504233003 | 50 | 232 | 2.0 | 11.0 | 0.00 | 0.34 | 0.06 | 61 | 1002.5 |
| 20260504231501 | 51 | 232 | 3.0 | 11.0 | 0.00 | 0.34 | 0.06 | 59 | 1002.3 |
| 20260504230104 | 51 | 220 | 4.0 | 11.0 | 0.00 | 0.34 | 0.06 | 57 | 1002.2 |
| 20260504224610 | 52 | 252 | 5.0 | 10.0 | 0.00 | 0.42 | 0.06 | 56 | 1002.2 |
| 20260504223056 | 52 | 231 | 4.0 | 14.0 | 0.00 | 0.42 | 0.06 | 56 | 1002.0 |
| 20260504221555 | 53 | 252 | 8.0 | 14.0 | 0.00 | 0.42 | 0.06 | 54 | 1001.6 |
| 20260504220058 | 53 | 208 | 5.0 | 22.0 | 0.00 | 0.42 | 0.06 | 53 | 1001.6 |
| 20260504214552 | 54 | 256 | 8.0 | 18.0 | 0.00 | 0.65 | 0.06 | 53 | 1001.5 |
| 20260504213119 | 54 | 258 | 10.0 | 19.0 | 0.00 | 0.65 | 0.06 | 52 | 1001.4 |
| 20260504211549 | 53 | 273 | 15.0 | 28.0 | 0.00 | 0.65 | 0.06 | 53 | 1001.1 |
| 20260504210047 | 52 | 264 | 15.0 | 26.0 | 0.00 | 0.65 | 0.06 | 55 | 1001.0 |
| 20260504204545 | 53 | 285 | 12.0 | 31.0 | 0.00 | 0.67 | 0.06 | 57 | 1000.7 |
| 20260504203042 | 52 | 241 | 10.0 | 27.0 | 0.00 | 0.67 | 0.06 | 62 | 1000.4 |
| 20260504201538 | 53 | 267 | 10.0 | 27.0 | 0.00 | 0.67 | 0.06 | 65 | 1000.0 |
| 20260504200035 | 52 | 235 | 7.0 | 25.0 | 0.00 | 0.67 | 0.06 | 67 | 999.8 |
| 20260504194531 | 52 | 250 | 12.0 | 25.0 | 0.00 | 0.69 | 0.06 | 69 | 999.3 |
| 20260504193030 | 51 | 264 | 10.0 | 22.0 | 0.00 | 0.69 | 0.06 | 73 | 999.3 |
| 20260504191524 | 50 | 277 | 12.0 | 23.0 | 0.00 | 0.69 | 0.06 | 75 | 999.1 |
| 20260504190020 | 49 | 284 | 12.0 | 23.0 | 0.00 | 0.69 | 0.06 | 78 | 998.8 |
| 20260504184518 | 48 | 268 | 12.0 | 26.0 | 0.00 | 0.72 | 0.06 | 79 | 998.7 |
| 20260504183021 | 48 | 242 | 10.0 | 21.0 | 0.00 | 0.72 | 0.06 | 81 | 998.4 |
| 20260504181511 | 47 | 275 | 11.0 | 21.0 | 0.00 | 0.72 | 0.06 | 83 | 998.1 |
| 20260504180010 | 46 | 245 | 8.0 | 24.0 | 0.00 | 0.72 | 0.06 | 84 | 998.1 |
| 20260504174506 | 46 | 271 | 12.0 | 25.0 | 0.00 | 0.72 | 0.06 | 85 | 997.8 |
| 20260504173003 | 45 | 291 | 11.0 | 23.0 | 0.00 | 0.72 | 0.06 | 87 | 997.5 |
| 20260504171601 | 44 | 285 | 14.0 | 24.0 | 0.00 | 0.72 | 0.06 | 87 | 997.3 |
| 20260504110111 | 39 | 252 | 10.0 | 24.0 | 0.00 | 0.72 | 0.06 | 94 | 983.8 |
| 20260504081523 | 38 | 267 | 9.0 | 19.0 | 0.00 | 0.70 | 0.04 | 96 | 977.4 |